WEATHER DATA

YESTERDAY
Time Temp. Dewp. Hum. Wind dir Wind speed Wind gust Bar. 1h Prec. 24h Prec.
00:04 -1 -4.4 75 270 0.3 0.6 1012.9 0.0000 0.0000
00:14 -1 -4.4 75 0.0 0.6 1012.9 0.0000 0.0000
00:25 -1 -4.4 75 0.0 0.3 1012.9 0.0000 0.0000
00:35 -0.9 -4.3 75 0.0 0.6 1013 0.0000 0.0000
00:45 -0.9 -4.3 75 0.0 0.6 1013 0.0000 0.0000
00:55 -0.9 -4.3 75 0.0 0.6 1012.9 0.0000 0.0000
01:05 -0.9 -4.3 75 270 0.3 0.6 1013 0.0000 0.0000
01:15 -0.8 -4.2 75 225 0.3 0.6 1013.1 0.0000 0.0000
01:25 -0.8 -4.2 75 270 0.3 0.6 1013 0.0000 0.0000
01:36 -0.7 -4.1 75 0.0 0.6 1013 0.0000 0.0000
01:46 -0.7 -4.1 75 0.0 0.6 1013 0.0000 0.0000
01:56 -0.7 -4.1 75 0.0 0.3 1013 0.0000 0.0000
02:06 -0.7 -4.1 75 0.0 0.6 1013 0.0000 0.0000
02:16 -0.7 -4.1 75 0.0 0.3 1013.1 0.0000 0.0000
02:36 -0.8 -4.2 75 315 0.3 0.6 1013.1 0.0000 0.0000
02:47 -0.8 -4.2 75 270 0.3 0.6 1013.1 0.0000 0.0000
02:57 -0.8 -4.2 75 0.0 0.3 1013.1 0.0000 0.0000
03:06 -0.8 -4.2 75 270 0.3 0.6 1013.2 0.0000 0.0000
03:16 -0.8 -4.2 75 270 0.3 0.6 1013.2 0.0000 0.0000
03:27 -0.8 -4.2 75 315 0.3 0.6 1013.2 0.0000 0.0000
03:47 -0.8 -4.1 76 0.0 0.6 1013.2 0.0000 0.0000
03:57 -0.8 -4.1 76 0.0 0.6 1013.2 0.0000 0.0000
04:07 -0.8 -4.2 75 315 0.3 0.6 1013.3 0.0000 0.0000
04:17 -0.8 -4.2 75 0.3 0.6 1013.3 0.0000 0.0000
04:27 -0.8 -4.2 75 0.0 0.3 1013.3 0.0000 0.0000
04:48 -0.9 -4.2 76 0.0 0.3 1013.3 0.0000 0.0000
04:57 -0.9 -4.2 76 0.0 0.3 1013.3 0.0000 0.0000
05:08 -0.9 -4.2 76 0.0 0.6 1013.5 0.0000 0.0000
05:18 -0.9 -4.2 76 270 0.3 0.6 1013.3 0.0000 0.0000
05:28 -0.8 -4.1 76 0.0 0.6 1013.3 0.0000 0.0000
05:38 -0.8 -4.1 76 0.0 0.6 1013.3 0.0000 0.0000
05:48 -0.8 -4.1 76 0.0 0.3 1013.5 0.0000 0.0000
05:58 -0.7 -4 76 270 0.3 0.6 1013.3 0.0000 0.0000
06:08 -0.7 -4 76 0.0 0.6 1013.5 0.0000 0.0000
06:18 -0.7 -4 76 0.0 0.3 1013.5 0.0000 0.0000
06:29 -0.6 -4 75 0.0 0.6 1013.5 0.0000 0.0000
06:38 -0.6 -4 75 0.0 0.6 1013.6 0.0000 0.0000
06:53 -0.6 -4 75 270 0.3 0.6 1013.7 0.0000 0.0000
07:04 -0.6 -3.9 76 270 0.3 0.6 1013.8 0.0000 0.0000
07:14 -0.7 -4 76 270 0.3 0.6 1013.9 0.0000 0.0000
07:24 -0.7 -4 76 270 0.3 0.6 1014 0.0000 0.0000
07:39 -0.7 -4 76 270 0.3 0.6 1014.1 0.0000 0.0000
07:49 -0.7 -4 76 270 0.3 0.6 1014.2 0.0000 0.0000
07:59 -0.7 -4 76 270 0.3 0.6 1014.3 0.0000 0.0000
08:10 -0.7 -4 76 270 0.3 0.6 1014.3 0.0000 0.0000
08:20 -0.6 -3.9 76 270 0.3 0.6 1014.3 0.0000 0.0000
08:29 -0.6 -3.9 76 270 0.3 0.6 1014.3 0.0000 0.0000
08:39 -0.6 -3.9 76 270 0.3 0.6 1014.4 0.0000 0.0000
08:50 -0.5 -3.9 75 270 0.3 0.6 1014.5 0.0000 0.0000
09:00 -0.5 -3.9 75 270 0.3 0.6 1014.4 0.0000 0.0000
09:10 -0.4 -3.8 75 270 0.3 0.6 1014.4 0.0000 0.0000
09:20 -0.3 -3.6 76 270 0.3 0.6 1014.4 0.0000 0.0000
09:30 -0.3 -3.4 77 0.0 0.3 1014.3 0.0000 0.0000
09:40 -0.2 -3.6 75 225 0.3 0.6 1014.2 0.0000 0.0000
09:50 -0.1 -3.7 74 270 0.3 0.6 1014.2 0.0000 0.0000
10:01 0 -3.6 74 0.0 0.3 1014.1 0.0000 0.0000
10:11 0 -3.8 73 0.0 0.6 1014.2 0.0000 0.0000
10:20 0 -3.8 73 270 0.3 0.6 1014.2 0.0000 0.0000
10:31 0 -3.8 73 270 0.3 0.6 1014.3 0.0000 0.0000
10:42 0.1 -3.8 72 315 0.3 1.1 1014.3 0.0000 0.0000
10:52 0.1 -3.8 72 270 0.3 0.6 1014.3 0.0000 0.0000
11:02 0.2 -3.8 72 270 0.3 0.6 1014.4 0.0000 0.0000
11:12 0.3 -3.7 72 270 0.3 0.6 1014.5 0.0000 0.0000
11:23 0.4 -3.6 72 270 0.3 0.6 1014.5 0.0000 0.0000
11:33 0.5 -3.5 72 270 0.3 0.6 1014.5 0.0000 0.0000
11:43 0.5 -3.5 72 270 0.3 0.8 1014.4 0.0000 0.0000
11:53 0.6 -3.4 72 270 0.3 0.6 1014.3 0.0000 0.0000
12:03 0.7 -3.3 72 0.0 0.6 1014.1 0.0000 0.0000
12:13 0.8 -3.4 71 315 0.3 0.8 1014.1 0.0000 0.0000
12:23 0.9 -3.3 71 315 0.3 0.6 1014 0.0000 0.0000
12:34 1.1 -3.2 71 270 0.3 0.6 1014 0.0000 0.0000
12:43 1.3 -3 71 270 0.3 0.6 1013.8 0.0000 0.0000
12:53 1.5 -3 70 270 0.3 0.6 1013.8 0.0000 0.0000
13:03 1.6 -3.1 69 270 0.3 0.6 1013.7 0.0000 0.0000
13:14 1.7 -3 69 270 0.3 0.6 1013.7 0.0000 0.0000
13:24 1.7 -3 69 270 0.3 0.6 1013.7 0.0000 0.0000
13:34 1.8 -2.9 69 270 0.3 0.6 1013.6 0.0000 0.0000
13:44 1.9 -3 68 270 0.3 0.6 1013.5 0.0000 0.0000
13:54 2 -2.9 68 270 0.3 0.6 1013.5 0.0000 0.0000
14:04 2 -2.9 68 270 0.3 0.6 1013.5 0.0000 0.0000
14:14 2.1 -2.8 68 0.0 0.3 1013.5 0.0000 0.0000
14:25 2.2 -2.7 68 0.0 0.3 1013.6 0.0000 0.0000
14:35 2.3 -2.6 68 45 0.3 0.8 1013.3 0.0000 0.0000
14:44 2.3 -2.6 68 0.0 0.6 1013.5 0.0000 0.0000
14:55 2.4 -2.6 68 0.0 0.6 1013.3 0.0000 0.0000
15:05 2.4 -2.6 68 270 0.3 0.6 1013.2 0.0000 0.0000
15:15 2.3 -2.6 68 225 0.3 0.6 1013.2 0.0000 0.0000
15:25 2.2 -2.7 68 0.0 0.6 1013.1 0.0000 0.0000
15:36 2.2 -2.7 68 0.0 0.6 1013 0.0000 0.0000
15:45 2.3 -2.6 68 0.0 0.3 1013.1 0.0000 0.0000
15:55 2.3 -2.6 68 0.0 0.6 1013.1 0.0000 0.0000
16:05 2.2 -2.7 68 0.0 0.6 1013.1 0.0000 0.0000
16:16 2.2 -2.7 68 135 0.3 0.6 1013.2 0.0000 0.0000
16:26 2.1 -2.8 68 239 0.3 0.6 1013.3 0.0000 0.0000
16:36 2 -2.9 68 270 0.3 0.6 1013.5 0.0000 0.0000
16:46 1.9 -3 68 270 0.3 0.6 1013.7 0.0000 0.0000
16:56 1.8 -3.1 68 270 0.3 0.6 1013.7 0.0000 0.0000
17:06 1.7 -3.2 68 270 0.3 0.6 1013.7 0.0000 0.0000
17:16 1.5 -3.3 68 0.0 0.6 1013.8 0.0000 0.0000
17:27 1.4 -3.2 69 90 0.3 0.6 1013.8 0.0000 0.0000
17:37 1.3 -3.3 69 45 0.3 0.6 1013.9 0.0000 0.0000
17:46 1.2 -3.4 69 0.3 0.6 1013.9 0.0000 0.0000
17:56 1.1 -3.5 69 45 0.3 0.6 1014 0.0000 0.0000
18:07 1 -3.6 69 270 0.3 0.6 1014.1 0.0000 0.0000
18:17 0.9 -3.5 70 270 0.3 0.8 1014.2 0.0000 0.0000
18:27 0.8 -3.6 70 0.3 0.6 1014.3 0.0000 0.0000
18:37 0.7 -3.7 70 270 0.3 0.6 1014.3 0.0000 0.0000
18:47 0.7 -3.8 69 270 0.3 0.6 1014.4 0.0000 0.0000
18:57 0.6 -3.9 69 270 0.3 0.6 1014.4 0.0000 0.0000
19:07 0.5 -4 69 239 0.3 0.6 1014.4 0.0000 0.0000
19:18 0.4 -4.1 69 270 0.3 0.8 1014.4 0.0000 0.0000
19:28 0.4 -4.1 69 270 0.3 0.8 1014.5 0.0000 0.0000
19:37 0.3 -4.2 69 270 0.3 1.1 1014.5 0.0000 0.0000
19:48 0.2 -4.4 68 270 0.3 1.1 1014.6 0.0000 0.0000
19:58 0.1 -4.5 68 270 0.3 0.6 1014.7 0.0000 0.0000
20:08 0.1 -4.5 68 270 0.3 0.6 1014.7 0.0000 0.0000
20:18 0.1 -4.5 68 135 0.3 0.8 1014.7 0.0000 0.0000
20:29 0 -4.8 67 225 0.3 0.8 1014.7 0.0000 0.0000
20:38 0 -4.8 67 225 0.3 0.6 1014.8 0.0000 0.0000
20:48 0 -4.8 67 225 0.3 0.8 1014.8 0.0000 0.0000
21:09 -0.2 -5.3 65 270 0.3 1.1 1014.8 0.0000 0.0000
21:19 -0.3 -5.4 65 270 0.3 0.8 1015 0.0000 0.0000
21:29 -0.4 -5.5 65 239 0.3 0.6 1015 0.0000 0.0000
21:39 -0.5 -5.6 65 236 0.3 0.6 1015 0.0000 0.0000
21:54 -0.6 -5.9 64 270 0.3 0.8 1015.3 0.0000 0.0000
22:04 -0.7 -5.8 65 270 0.3 0.6 1015.3 0.0000 0.0000
22:15 -0.8 -5.9 65 270 0.3 0.8 1015.3 0.0000 0.0000
22:24 -0.9 -6 65 239 0.3 0.6 1015.4 0.0000 0.0000
22:34 -0.9 -6 65 225 0.3 0.6 1015.4 0.0000 0.0000
22:44 -1 -5.9 66 225 0.3 0.6 1015.4 0.0000 0.0000
23:05 -1.1 -6 66 270 0.3 0.6 1015.6 0.0000 0.0000
23:19 -1.1 -6 66 270 0.3 0.8 1015.6 0.0000 0.0000
23:30 -1.2 -6.1 66 270 0.3 0.6 1015.5 0.0000 0.0000
23:43 -1.2 -6.1 66 270 0.3 0.6 1015.5 0.0000 0.0000
23:54 -1.3 -6.2 66 270 0.3 0.8 1015.6 0.0000 0.0000

DAY STATISTICS

2018-02-24
TEMPERATURE
AVERAGE
0.2
HIGH
2.4
14:55
LOW
-1.3
23:54
PRESSURE
AVERAGE
1013.9
HIGH
1015.6
23:05
LOW
1012.9
00:04
DEWPOINT
AVERAGE
-3.9
HIGH
-2.6
14:35
LOW
-6.2
23:54
HUMIDITY
AVERAGE
71
HIGH
77
09:30
LOW
64
21:54
WIND SPEED
AVERAGE
0.2
HIGH
0.3
00:04
WIND GUST
AVERAGE
0.6
HIGH
1.1
10:42
WIND DIRECTION
PREVAILING
W
51.1%
N
0.0
NE
2.2
E
0.7
SE
1.5
S
0.0
SW
9.6
W
51.1
NW
4.4
PRECIPITATION
RAIN HOUR
0.0
RAIN DAY
0.0
TEMPERATURE (°C)
LOW
-1.3
HIGH
2.4
AVERAGE
0.2
PRESSURE (hpa)
LOW
1012.9
HIGH
1015.6
AVERAGE
1013.9
DEVICE